Regional Weather Roundup
Issued by NWS

Home | Current Version | Previous Version | Text Only | Print | Product List | Glossary On
Versions: 1 2 3 4 5 6 7 8 9 10 11 12 13 14 15 16 17 18 19 20 21 22 23 24 25 26 27 28 29 30 31 32 33 34 35 36 37 38 39 40 41 42 43 44 45 46 47 48 49 50
000
ASUS44 KFWD 260315
RWRTX
NORTH TEXAS HOURLY WEATHER ROUNDUP
NATIONAL WEATHER SERVICE FORT WORTH TX
1000 PM CDT MON MAY 25 2015

NOTE: "FAIR" INDICATES FEW OR NO CLOUDS BELOW 12,000 FEET WITH NO
SIGNIFICANT WEATHER AND/OR OBSTRUCTIONS TO VISIBILITY.

TXZ118-119-260400-
DALLAS/FORT WORTH METROPLEX

CITY           SKY/WX    TMP DP  RH WIND       PRES   REMARKS
DFW AIRPORT    CLOUDY    62  62 100 SW8       29.85R
DALLAS LOVE    CLOUDY    65  63  93 W7        29.87R
FTW MEACHAM    CLOUDY    62  61  96 SW3       29.85R
DAL-EXECUTIVE  CLOUDY    64  62  93 VRB3      29.84R
FTW-ALLIANCE   CLOUDY    61  60  97 SW5       29.85R
FTW-NAS-JRB    CLOUDY    63  61  93 W3        29.86R
FTW-SPINKS     CLOUDY    63  61  96 CALM      29.88R
ARLINGTON      CLOUDY    65  61  87 S5        29.86R
GRAND PRAIRIE  CLOUDY    64  64 100 SW7       29.87R
ADDISON        MOCLDY    64  63  94 SW6       29.86R
MESQUITE       CLOUDY    64  63  97 S7        29.85S
LANCASTER      CLOUDY    64  61  89 SW6       29.85F
$$

TXZ091>094-102>105-117-120-121-131>134-260400-
NORTH CENTRAL TEXAS

CITY           SKY/WX    TMP DP  RH WIND       PRES   REMARKS
SHRMAN/DENISON CLOUDY    63  63 100 SW3       29.83S
GAINESVILLE    CLOUDY    60  60  97 SW3       29.85S
BOWIE          CLOUDY    59  59 100 S5        29.84S
BRIDGEPORT     CLOUDY    61  61 100 SW5       29.86S
DECATUR        CLOUDY    59  59 100 SW6       29.85R
DENTON         CLOUDY    61  60  97 SW6       29.83F
MCKINNEY       CLOUDY    64  62  93 SW5       29.86R
GREENVILLE     CLOUDY    64  61  88 CALM      29.87R
ROCKWALL       CLOUDY   N/A N/A N/A SW6       29.85R
TERRELL        CLOUDY    64  63  96 SW3       29.84R
WAXAHACHIE     CLOUDY    63  63 100 SW6       29.87F
CLEBURNE       CLOUDY    63  63 100 S5        29.89R
GRANBURY         N/A     62  60  94 CALM      29.87F
$$

TXZ083>090-098>101-113>116-127>130-139>142-154-155-260400-
WESTERN NORTH TEXAS

CITY           SKY/WX    TMP DP  RH WIND       PRES   REMARKS
WICHITA FALLS  CLOUDY    61  58  90 S5        29.83R
WF-KICKAPOO    CLOUDY    64  61  90 S7        29.84R
VERNON         MOCLDY    65  52  61 W6        29.85R
ABILENE        CLEAR     65  59  81 E6        29.88R
ABILENE-DYESS  CLEAR     65  57  75 S2        29.86S
BRECKENRIDGE   CLOUDY    64  62  94 SE8       29.87R
GRAHAM         CLOUDY    59  59 100 CALM      29.85S
MINERAL WELLS  CLOUDY    60  59  96 CALM      29.85R
STEPHENVILLE   CLOUDY    60  58  94 CALM      29.90S
COMANCHE       FOG       59  59 100 CALM      29.89S VSB 1/2
BROWNWOOD      PTCLDY    61  61 100 E3        29.89R
COLEMAN        CLEAR     64  62  93 E3        29.89R
BRADY          CLEAR     64  63  94 CALM      29.88R
$$

TXZ143>147-156>162-174-175-260400-
CENTRAL TEXAS

CITY           SKY/WX    TMP DP  RH WIND       PRES   REMARKS
WACO           CLOUDY    66  65  96 SE6       29.88R
WACO-TSTC      CLOUDY    66  64  94 CALM      29.88R
WACO-MCGREGOR    N/A    N/A N/A N/A MISG        N/A  THUNDER
HILLSBORO      CLOUDY    63  61  93 CALM      29.89R
CORSICANA      CLOUDY    66  63  90 S8        29.88R
MEXIA          CLOUDY    64  63  97 SE13G21   29.86R
CAMERON        CLOUDY    66  65  98 CALM      29.86F
TEMPLE         CLOUDY    66  63  88 NE5       29.88R
KILLEEN        CLOUDY    65  65  98 VRB1      29.87R FOG
KILLEEN-SKYLRK CLOUDY    66  61  82 W5        29.87S
GATESVILLE     FOG       63  63 100 W3        29.92R VSB<1/4
HAMILTON       CLOUDY    63  63 100 N5        29.92R FOG
LAMPASAS       FOG       64  63  97 SE5       29.89R VSB 1/2
$$

TXZ095>097-106>112-122>126-135>138-148>153-164>167-260400-
EAST TEXAS

CITY           SKY/WX    TMP DP  RH WIND       PRES   REMARKS
PARIS          CLOUDY    63  57  82 SE13G18   29.82R
MOUNT PLEASANT CLOUDY    63  63  99 E10G23    29.82F
GILMER         CLOUDY    62  62  98 E17G26    29.82F
MINEOLA        CLOUDY    64  64 100 SW6       29.87R
TYLER          CLOUDY    65  61  87 SW14      29.89R
LONGVIEW       LGT RAIN  64  62  93 E16G23    29.87F
MARSHALL       CLOUDY    66  64  92 E6        29.98F
ATHENS         CLOUDY    63  61  94 S3        29.85R
PALESTINE      CLOUDY    65  64  96 SE7G17    29.89R
JACKSONVILLE   TSTM      64  63  94 E13G21    29.86F
LUFKIN         RAIN      67  64  90 E9        29.98R FOG
$$

SUPPLEMENTAL OBSERVATIONS (CENTRAL)

CITY           SKY/WX    TMP DP  RH WIND       PRES   REMARKS
LAKE TEXOMA      N/A     63  59  88 W6          N/A
CADDO GRASSLND   N/A     64  59  82 S8          N/A
PAT MAYSE LAKE   N/A    N/A N/A N/A SE3         N/A
GREENVILLE       N/A     63  57  82 SW5         N/A
CEDAR HILL       N/A     63  59  88 SW3         N/A
ATHENS           N/A     64  61  88 S8          N/A
LAKE LIMESTONE   N/A     66  63  88 SE5         N/A
MCGREGOR         N/A     66  64  94 CALM        N/A
TEMPLE           N/A     66  64  94 E5          N/A
$$

SUPPLEMENTAL OBSERVATIONS (WEST)

CITY           SKY/WX    TMP DP  RH WIND       PRES   REMARKS
MILLERS CREEK    N/A     64  59  82 SE3         N/A
POSSUM KINGDOM   N/A     61  57  88 S5          N/A
LBJ GRASSLAND    N/A     61  59  94 S2          N/A
GRANBURY         N/A     61  59  94 SW3         N/A
COMANCHE         N/A     59  57  94 S3          N/A
HAMBY            N/A     61  57  88 SE3         N/A
IVIE RESERVOIR   N/A     66  61  82 E7          N/A
COLORADO BEND    N/A    N/A N/A N/A E1          N/A
$$

SUPPLEMENTAL OBSERVATIONS (EAST)

CITY           SKY/WX    TMP DP  RH WIND       PRES   REMARKS
CLARKSVILLE      N/A    N/A N/A N/A SE8G23      N/A
TEXARKANA        N/A    N/A N/A N/A SE5         N/A
LINDEN           N/A    N/A N/A N/A E6          N/A
CADDO LAKE       N/A    N/A N/A N/A E5          N/A
GILMER           N/A     63  59  88 E10         N/A
HENDERSON        N/A    N/A N/A N/A E14G22      N/A
N SABINE NF      N/A     64  61  88 MISG        N/A
S SABINE NF      N/A     64  63  94 CALM        N/A
$$

SUPPLEMENTAL OBSERVATIONS ARE A COLLECTION OF AUTOMATED INSTRUMENTS
THAT ARE MAINTAINED BY A VARIETY OF FEDERAL AND STATE AGENCIES.
CERTAIN ELEMENTS...SUCH AS HUMIDITY VALUES AND SUSTAINED WIND
SPEEDS...MAY BE APPROXIMATED.



USA.gov is the U.S. government's official web portal to all federal, state and local government web resources and services.